When you browse on this site, cookies collect data to enhance your experience and personalize the content and advertising you see.
Visit our Privacy Policy to learn more. By continuing to use the site, you agree to this use of cookies and data.
  • In Österreich
  • Länderverzeichnis
  • Für 7 Tage
  • Wassertemperatur
  • Satellitenkarten
  • Wetterkarte
  • News
  • Widgets
  • user-avatar
    Anmelden

    Stündliche Wetter Baraki Barak

    Heute, 27 Juni, Donnerstag

    Zeit Temperatur Niederschläge Wind Luftdruck Luftfeuchtigkeit
    00:00 +23°C° 0 mm 2 m/S 597 mmHg 24%
    01:00 +21°C° 0 mm 2 m/S 597 mmHg 25%
    02:00 +21°C° 0 mm 1 m/S 597 mmHg 26%
    03:00 +20°C° 0 mm 1 m/S 596 mmHg 27%
    04:00 +20°C° 0 mm 1 m/S 596 mmHg 28%
    05:00 +19°C° 0 mm 1 m/S 596 mmHg 29%
    06:00 +20°C° 0 mm 1 m/S 596 mmHg 26%
    07:00 +21°C° 0 mm 2 m/S 597 mmHg 23%
    08:00 +23°C° 0 mm 2 m/S 598 mmHg 21%
    09:00 +24°C° 0 mm 2 m/S 598 mmHg 19%
    10:00 +25°C° 0 mm 2 m/S 598 mmHg 17%
    11:00 +27°C° 0 mm 2 m/S 599 mmHg 15%
    12:00 +28°C° 0 mm 2 m/S 599 mmHg 13%
    13:00 +28°C° 0 mm 2 m/S 598 mmHg 12%
    14:00 +29°C° 0 mm 2 m/S 598 mmHg 10%
    15:00 +30°C° 0 mm 2 m/S 598 mmHg 10%
    16:00 +30°C° 0 mm 2 m/S 598 mmHg 9%
    17:00 +31°C° 0 mm 3 m/S 598 mmHg 8%
    18:00 +29°C° 0 mm 4 m/S 597 mmHg 10%
    19:00 +28°C° 0 mm 5 m/S 597 mmHg 11%
    20:00 +26°C° 0 mm 6 m/S 596 mmHg 13%
    21:00 +25°C° 0 mm 5 m/S 596 mmHg 14%
    22:00 +23°C° 0 mm 4 m/S 596 mmHg 16%
    23:00 +23°C° 0 mm 2 m/S 596 mmHg 17%

    Morgen, 28 Juni, Freitag

    Zeit Temperatur Niederschläge Wind Luftdruck Luftfeuchtigkeit
    00:00 +23°C° 0 mm 2 m/S 596 mmHg 18%
    01:00 +22°C° 0 mm 1 m/S 596 mmHg 20%
    02:00 +21°C° 0 mm 1 m/S 595 mmHg 21%
    03:00 +20°C° 0 mm 1 m/S 595 mmHg 22%
    04:00 +20°C° 0 mm 1 m/S 595 mmHg 23%
    05:00 +19°C° 0 mm 1 m/S 595 mmHg 24%
    06:00 +21°C° 0 mm 1 m/S 595 mmHg 22%
    07:00 +22°C° 0 mm 1 m/S 596 mmHg 20%
    08:00 +23°C° 0 mm 1 m/S 597 mmHg 18%
    09:00 +25°C° 0 mm 2 m/S 597 mmHg 17%
    10:00 +26°C° 0 mm 2 m/S 598 mmHg 15%
    11:00 +27°C° 0 mm 2 m/S 598 mmHg 14%
    12:00 +28°C° 0 mm 2 m/S 598 mmHg 13%
    13:00 +29°C° 0 mm 2 m/S 598 mmHg 12%
    14:00 +30°C° 0 mm 2 m/S 598 mmHg 10%
    15:00 +30°C° 0 mm 2 m/S 598 mmHg 10%
    16:00 +31°C° 0 mm 2 m/S 598 mmHg 10%
    17:00 +31°C° 0 mm 2 m/S 598 mmHg 9%
    18:00 +30°C° 0 mm 4 m/S 597 mmHg 11%
    19:00 +29°C° 0 mm 5 m/S 597 mmHg 13%
    20:00 +28°C° 0 mm 7 m/S 597 mmHg 14%
    21:00 +27°C° 0 mm 5 m/S 597 mmHg 17%
    22:00 +26°C° 0 mm 4 m/S 597 mmHg 19%
    23:00 +25°C° 0 mm 2 m/S 597 mmHg 21%

    übermorgen, 29 Juni, Samstag

    Zeit Temperatur Niederschläge Wind Luftdruck Luftfeuchtigkeit
    00:00 +24°C° 0 mm 2 m/S 596 mmHg 23%
    01:00 +23°C° 0 mm 1 m/S 596 mmHg 25%
    02:00 +22°C° 0 mm 1 m/S 595 mmHg 26%
    03:00 +22°C° 0 mm 1 m/S 595 mmHg 27%
    04:00 +21°C° 0 mm 1 m/S 595 mmHg 29%
    05:00 +18°C° 0 mm 0 m/S 594 mmHg 30%
    06:00 +22°C° 0 mm 1 m/S 595 mmHg 27%
    07:00 +23°C° 0 mm 1 m/S 596 mmHg 25%
    08:00 +24°C° 0 mm 1 m/S 597 mmHg 22%
    09:00 +26°C° 0 mm 1 m/S 597 mmHg 21%
    10:00 +27°C° 0 mm 1 m/S 597 mmHg 19%
    11:00 +28°C° 0 mm 1 m/S 598 mmHg 18%
    12:00 +30°C° 0 mm 1 m/S 598 mmHg 16%
    13:00 +31°C° 0 mm 1 m/S 598 mmHg 14%
    14:00 +32°C° 0 mm 2 m/S 598 mmHg 11%
    15:00 +32°C° 0 mm 2 m/S 598 mmHg 11%
    16:00 +32°C° 0 mm 2 m/S 597 mmHg 11%
    17:00 +34°C° 0 mm 3 m/S 597 mmHg 11%
    18:00 +31°C° 0 mm 3 m/S 597 mmHg 13%
    19:00 +30°C° 0 mm 3 m/S 597 mmHg 16%
    20:00 +29°C° 0 mm 2 m/S 597 mmHg 18%
    21:00 +28°C° 0 mm 2 m/S 597 mmHg 20%
    22:00 +28°C° 0 mm 2 m/S 597 mmHg 21%
    23:00 +27°C° 0 mm 3 m/S 597 mmHg 23%

    30 Juni, Sonntag

    Zeit Temperatur Niederschläge Wind Luftdruck Luftfeuchtigkeit
    00:00 +26°C° 0 mm 2 m/S 596 mmHg 25%
    01:00 +25°C° 0 mm 2 m/S 596 mmHg 27%
    02:00 +24°C° 0 mm 2 m/S 595 mmHg 29%
    03:00 +23°C° 0 mm 1 m/S 595 mmHg 31%
    04:00 +23°C° 0 mm 1 m/S 595 mmHg 33%
    05:00 +20°C° 0 mm 0 m/S 594 mmHg 35%
    06:00 +21°C° 0 mm 0 m/S 595 mmHg 32%
    07:00 +25°C° 0 mm 1 m/S 596 mmHg 29%
    08:00 +26°C° 0 mm 1 m/S 597 mmHg 26%
    09:00 +27°C° 0 mm 1 m/S 597 mmHg 23%
    10:00 +29°C° 0 mm 1 m/S 598 mmHg 21%
    11:00 +30°C° 0 mm 1 m/S 598 mmHg 19%
    12:00 +31°C° 0 mm 1 m/S 598 mmHg 16%
    13:00 +32°C° 0 mm 1 m/S 599 mmHg 14%
    14:00 +33°C° 0 mm 1 m/S 599 mmHg 11%
    15:00 +35°C° 0 mm 2 m/S 599 mmHg 11%
    16:00 +35°C° 0 mm 2 m/S 598 mmHg 11%
    17:00 +35°C° 0 mm 2 m/S 598 mmHg 11%
    18:00 +33°C° 0 mm 3 m/S 598 mmHg 16%
    19:00 +30°C° 0 mm 4 m/S 597 mmHg 20%
    20:00 +28°C° 0 mm 5 m/S 597 mmHg 24%
    21:00 +28°C° 0 mm 4 m/S 597 mmHg 26%
    22:00 +27°C° 0 mm 2 m/S 597 mmHg 28%
    23:00 +24°C° 0 mm 0 m/S 597 mmHg 30%

    1 Juli, Montag

    Zeit Temperatur Niederschläge Wind Luftdruck Luftfeuchtigkeit
    00:00 +23°C° 0 mm 0 m/S 597 mmHg 31%
    01:00 +23°C° 0 mm 0 m/S 596 mmHg 32%
    02:00 +22°C° 0 mm 0 m/S 596 mmHg 33%
    03:00 +21°C° 0 mm 0 m/S 596 mmHg 33%
    04:00 +21°C° 0 mm 0 m/S 595 mmHg 34%
    05:00 +20°C° 0 mm 0 m/S 595 mmHg 35%
    06:00 +22°C° 0 mm 0 m/S 596 mmHg 31%
    07:00 +25°C° 0 mm 1 m/S 597 mmHg 26%
    08:00 +27°C° 0 mm 1 m/S 598 mmHg 22%
    09:00 +28°C° 0 mm 1 m/S 598 mmHg 20%
    10:00 +29°C° 0 mm 2 m/S 599 mmHg 18%
    11:00 +31°C° 0 mm 2 m/S 599 mmHg 16%
    12:00 +32°C° 0 mm 2 m/S 599 mmHg 14%
    13:00 +34°C° 0 mm 2 m/S 599 mmHg 12%
    14:00 +35°C° 0 mm 2 m/S 599 mmHg 10%
    15:00 +35°C° 0 mm 3 m/S 599 mmHg 10%
    16:00 +35°C° 0 mm 3 m/S 599 mmHg 9%
    17:00 +35°C° 0 mm 4 m/S 598 mmHg 8%
    18:00 +34°C° 0 mm 4 m/S 598 mmHg 10%
    19:00 +32°C° 0 mm 4 m/S 598 mmHg 12%
    20:00 +30°C° 0 mm 5 m/S 598 mmHg 14%
    21:00 +29°C° 0 mm 3 m/S 598 mmHg 15%
    22:00 +27°C° 0 mm 2 m/S 598 mmHg 16%
    23:00 +26°C° 0 mm 1 m/S 598 mmHg 17%

    2 Juli, Dienstag

    Zeit Temperatur Niederschläge Wind Luftdruck Luftfeuchtigkeit
    00:00 +26°C° 0 mm 1 m/S 597 mmHg 18%
    01:00 +25°C° 0 mm 1 m/S 597 mmHg 19%
    02:00 +24°C° 0 mm 1 m/S 596 mmHg 19%
    03:00 +23°C° 0 mm 1 m/S 596 mmHg 20%
    04:00 +22°C° 0 mm 1 m/S 596 mmHg 21%
    05:00 +22°C° 0 mm 1 m/S 596 mmHg 22%
    06:00 +23°C° 0 mm 1 m/S 597 mmHg 20%
    07:00 +25°C° 0 mm 1 m/S 598 mmHg 18%
    08:00 +27°C° 0 mm 1 m/S 599 mmHg 16%
    09:00 +28°C° 0 mm 2 m/S 599 mmHg 14%
    10:00 +30°C° 0 mm 2 m/S 600 mmHg 12%
    11:00 +31°C° 0 mm 2 m/S 600 mmHg 10%
    12:00 +32°C° 0 mm 2 m/S 600 mmHg 9%
    13:00 +34°C° 0 mm 2 m/S 600 mmHg 8%
    14:00 +34°C° 0 mm 1 m/S 600 mmHg 7%
    15:00 +36°C° 0 mm 2 m/S 600 mmHg 7%
    16:00 +36°C° 0 mm 2 m/S 600 mmHg 6%
    17:00 +36°C° 0 mm 2 m/S 600 mmHg 6%
    18:00 +35°C° 0 mm 2 m/S 600 mmHg 8%
    19:00 +32°C° 0 mm 2 m/S 599 mmHg 9%
    20:00 +31°C° 0 mm 2 m/S 599 mmHg 11%
    21:00 +30°C° 0 mm 2 m/S 599 mmHg 17%
    22:00 +28°C° 0 mm 2 m/S 599 mmHg 23%
    23:00 +27°C° 0 mm 2 m/S 598 mmHg 28%
    Mehr zeigen